[[{"header":{"parameterUnit":"m.s-1","parameterCategory":1,"la1":30.2991,"la2":30.254,"lo1":-89.0895,"lo2":-89.0444,"dy":0.0017,"dx":0.0017,"nx":28,"ny":28,"refTime":"2025-09-03T03:00:00:Z","depth":0,"parameterNumber":2,"parameterNumberName":"U-component_of_WINDS"},"data":[0,0,0,0,0,0,0,0,0,0,0,0,0,0,0,0,0,0,0,0,0,0,0,0,0,0,0,0,0,0,0,0,0,0,0,0,0,0,0,0,0,0,0,0,0,0,0,0,0,0,0,0,0,0,0,0,0,0,-1.3284,-1.3284,0,-1.3235,-1.3235,-1.3234,-1.3164,-1.3163,-1.3162,-1.3161,-1.311,-1.311,-1.311,0,0,0,0,0,0,0,0,0,0,0,0,0,-1.332,-1.3319,-1.3284,-1.3284,-1.3283,-1.3235,-1.3235,-1.3234,-1.3165,-1.3163,-1.3162,-1.316,-1.311,-1.311,-1.311,0,0,0,0,0,0,0,0,0,0,0,0,0,-1.3291,-1.3319,-1.3285,-1.3243,-1.3239,-1.3235,-1.3235,-1.3234,-1.3165,-1.3163,-1.3161,-1.316,-1.311,-1.311,-1.311,-1.3143,0,0,-1.3109,-1.3108,0,0,0,0,0,0,0,0,-1.3292,-1.329,-1.325,-1.3246,-1.3241,-1.3204,-1.3228,-1.3203,-1.3165,-1.3193,-1.3161,-1.3159,-1.3143,-1.314,-1.3134,-1.3141,-1.3139,-1.3109,-1.3108,-1.3108,-1.3108,0,0,0,0,0,0,0,-1.3295,-1.3291,-1.3265,-1.3249,-1.3244,-1.3227,-1.3221,-1.3223,-1.3178,-1.319,-1.3185,-1.318,-1.314,-1.3135,-1.3133,-1.3138,-1.3109,-1.3108,-1.3108,-1.3108,-1.3172,-1.3174,0,0,0,0,0,0,-1.3303,-1.3293,-1.3266,-1.3263,-1.3263,-1.3228,-1.3221,-1.3218,-1.3178,-1.3171,-1.3182,-1.3177,-1.3136,-1.3133,-1.3131,-1.3168,-1.3108,-1.3108,-1.3108,-1.317,-1.3172,-1.3174,0,0,0,0,0,0,-1.3304,-1.3301,-1.3268,-1.3277,-1.3272,-1.3229,-1.3226,-1.3218,-1.3212,-1.3172,-1.3164,-1.3185,-1.3135,-1.3131,-1.3141,-1.3165,-1.3108,-1.3107,-1.3168,-1.3171,-1.3173,-1.3243,0,0,0,0,0,0,-1.3305,-1.3302,-1.3314,-1.3278,-1.3271,-1.328,-1.3227,-1.3218,-1.3212,-1.3205,-1.3172,-1.3165,-1.3133,-1.3142,-1.3141,-1.3164,-1.3107,-1.3165,-1.3169,-1.3172,-1.3239,-1.3248,-1.3256,0,0,0,0,0,-1.3306,-1.3335,-1.3314,-1.3312,-1.3285,-1.3281,-1.3277,-1.324,-1.3214,-1.3226,-1.3201,-1.3166,-1.3163,-1.3144,-1.3142,-1.3165,-1.3163,-1.3168,-1.3172,-1.3235,-1.3246,-1.3256,0,0,0,0,0,0,-1.3374,-1.3329,-1.3306,-1.3324,-1.3307,-1.3269,-1.3283,-1.3253,-1.3243,-1.3237,-1.3192,-1.3185,-1.3201,-1.3184,-1.3163,-1.3197,-1.3158,-1.3163,-1.3207,-1.3217,-1.3226,-1.3229,-1.3107,0,0,0,0,0,-1.3391,-1.3391,-1.3352,-1.3371,-1.3364,-1.3326,-1.3322,-1.3295,-1.3276,-1.3268,-1.3243,-1.3225,-1.3221,-1.3218,-1.3211,-1.3237,-1.3229,-1.3252,-1.3261,-1.3268,-1.3272,-1.3285,-1.3295,-1.3188,-1.3188,-1.3188,0,0,-1.3425,-1.3401,-1.3404,-1.3384,-1.3368,-1.3369,-1.332,-1.3323,-1.3324,-1.3268,-1.3276,-1.3258,-1.3235,-1.3253,-1.326,-1.324,-1.33,-1.3274,-1.328,-1.328,-1.3291,-1.3301,-1.331,-1.3191,-1.3191,-1.319,0,0,-1.3489,-1.3471,-1.3486,-1.3471,-1.3447,-1.3422,-1.3426,-1.3393,-1.3379,-1.3386,-1.3345,-1.3346,-1.3338,-1.3324,-1.3316,-1.3379,-1.3347,-1.3378,-1.3424,-1.3437,-1.3446,-1.3453,-1.3475,-1.3484,-1.3382,-1.3382,-1.3382,0,-1.3535,-1.3536,-1.3497,-1.3503,-1.3496,-1.3447,-1.3462,-1.345,-1.3425,-1.3422,-1.34,-1.3391,-1.3372,-1.3387,-1.3402,-1.3398,-1.3401,-1.3381,-1.3448,-1.3455,-1.3461,-1.3482,-1.349,-1.3386,-1.3386,-1.3385,-1.3385,0,-1.3594,-1.3595,-1.361,-1.3588,-1.3583,-1.3594,-1.3557,-1.3557,-1.3531,-1.3508,-1.3518,-1.3494,-1.3483,-1.3484,-1.3459,-1.3496,-1.3484,-1.3456,-1.3416,-1.3476,-1.3494,-1.3502,-1.3392,-1.339,-1.3389,-1.3388,0,0,-1.3696,-1.3655,-1.3661,-1.3651,-1.3623,-1.3623,-1.3632,-1.3621,-1.3622,-1.3608,-1.3615,-1.3611,-1.3585,-1.3577,-1.355,-1.3562,-1.3613,-1.3531,-1.353,-1.3547,-1.3654,-1.3675,-1.3685,-1.3593,-1.3594,-1.3595,-1.3655,0,-1.3754,-1.3767,-1.3734,-1.3755,-1.3756,-1.3712,-1.372,-1.3704,-1.3684,-1.3682,-1.366,-1.3658,-1.3624,-1.3618,-1.3628,-1.3605,-1.3634,-1.36,-1.3599,-1.3599,-1.3605,-1.3694,-1.3716,-1.3774,-1.3663,-1.3664,-1.3665,0,-1.3822,-1.3813,-1.3835,-1.3807,-1.3806,-1.3814,-1.3802,-1.3802,-1.3783,-1.3768,-1.376,-1.3729,-1.3737,-1.3701,-1.3712,-1.369,-1.3688,-1.3677,-1.3678,-1.3675,-1.3635,-1.3694,-1.3791,-1.38,-1.3676,-1.3675,-1.3674,0,-1.3895,-1.3887,-1.39,-1.3893,-1.3861,-1.3868,-1.3855,-1.3835,-1.3831,-1.3821,-1.3819,-1.381,-1.3805,-1.38,-1.3768,-1.3745,-1.3784,-1.3744,-1.3771,-1.3772,-1.378,-1.378,-1.3878,-1.378,-1.378,-1.378,-1.378,0,-1.3963,-1.3978,-1.3932,-1.394,-1.3956,-1.3918,-1.3936,-1.3918,-1.3901,-1.3905,-1.3867,-1.3871,-1.383,-1.383,-1.3806,-1.3819,-1.3817,-1.3805,-1.3798,-1.3808,-1.381,-1.3805,-1.38,-1.3782,-1.3782,-1.3781,-1.3781,0,-1.4045,-1.4015,-1.4026,-1.3996,-1.3988,-1.4002,-1.3976,-1.3982,-1.3961,-1.3966,-1.3966,-1.3932,-1.3931,-1.3899,-1.3891,-1.3875,-1.3898,-1.3884,-1.3904,-1.3899,-1.3928,-1.3926,-1.4026,-1.4038,-1.3934,-1.3935,-1.3936,0,-1.409,-1.4101,-1.4072,-1.4072,-1.4061,-1.4062,-1.4058,-1.4023,-1.4021,-1.4002,-1.4011,-1.4007,-1.4002,-1.4002,-1.3977,-1.3971,-1.3957,-1.3992,-1.3955,-1.3965,-1.3957,-1.3956,-1.3958,-1.4,-1.4001,-1.4002,-1.4003,0,-1.4172,-1.4158,-1.4154,-1.4146,-1.4143,-1.4135,-1.4124,-1.4127,-1.4088,-1.4088,-1.4087,-1.4083,-1.4076,-1.4072,-1.4063,-1.405,-1.402,-1.4015,-1.4021,-1.4031,-1.4042,-1.4036,-1.3925,-1.4013,-1.4012,-1.4011,-1.401,-1.401,-1.4237,-1.4245,-1.4227,-1.4225,-1.4213,-1.4205,-1.421,-1.419,-1.4188,-1.4179,-1.4159,-1.4161,-1.4145,-1.4128,-1.4119,-1.412,-1.4102,-1.4111,-1.4113,-1.4115,-1.4121,-1.4043,-1.4119,-1.4118,-1.4118,-1.4118,-1.4117,0,-1.4317,-1.4304,-1.4302,-1.429,-1.4288,-1.4262,-1.425,-1.425,-1.4253,-1.424,-1.4236,-1.4236,-1.4233,-1.4209,-1.4204,-1.421,-1.4197,-1.421,-1.4209,-1.4206,-1.4137,-1.4133,-1.4221,-1.4221,-1.4221,-1.4221,-1.4221,-1.4221,-1.4359,-1.4371,-1.4355,-1.4362,-1.4349,-1.4351,-1.4346,-1.4339,-1.4329,-1.433,-1.4328,-1.4312,-1.4295,-1.4289,-1.4286,-1.4279,-1.4279,-1.4297,-1.4285,-1.4221,-1.4211,-1.4201,-1.4197,-1.4297,-1.4297,-1.4354,-1.4354,-1.4355]},{"header":{"parameterUnit":"m.s-1","parameterCategory":1,"la1":30.2991,"la2":30.254,"lo1":-89.0895,"lo2":-89.0444,"dy":0.0017,"dx":0.0017,"nx":28,"ny":28,"refTime":"2025-09-03T03:00:00:Z","depth":0,"parameterNumber":3,"parameterNumberName":"V-component_of_WINDS"},"data":[0,0,0,0,0,0,0,0,0,0,0,0,0,0,0,0,0,0,0,0,0,0,0,0,0,0,0,0,0,0,0,0,0,0,0,0,0,0,0,0,0,0,0,0,0,0,0,0,0,0,0,0,0,0,0,0,0,0,2.8624,2.8624,0,2.8633,2.8633,2.8633,2.869,2.8692,2.8693,2.8694,2.8697,2.8696,2.8695,0,0,0,0,0,0,0,0,0,0,0,0,0,2.8652,2.8652,2.8624,2.8624,2.8624,2.8633,2.8633,2.8633,2.869,2.8692,2.8694,2.8695,2.8698,2.8696,2.8695,0,0,0,0,0,0,0,0,0,0,0,0,0,2.8648,2.8651,2.8624,2.8654,2.8657,2.8633,2.8633,2.8633,2.869,2.8692,2.8694,2.8696,2.8698,2.8697,2.8695,2.8641,0,0,2.8689,2.8688,0,0,0,0,0,0,0,0,2.8648,2.8647,2.8649,2.8652,2.8655,2.8663,2.8644,2.8635,2.8689,2.8677,2.8695,2.8697,2.8684,2.8683,2.868,2.8641,2.8641,2.8689,2.8688,2.8687,2.8686,0,0,0,0,0,0,0,2.8649,2.8647,2.8627,2.8649,2.8653,2.8665,2.8667,2.8642,2.8668,2.8678,2.8682,2.8683,2.8686,2.8682,2.868,2.8641,2.8689,2.8687,2.8686,2.8685,2.8557,2.8554,0,0,0,0,0,0,2.8645,2.8647,2.8627,2.8628,2.8657,2.8663,2.8665,2.8658,2.8669,2.8672,2.8681,2.8686,2.8684,2.8683,2.8681,2.8617,2.8687,2.8685,2.8684,2.8559,2.8556,2.8554,0,0,0,0,0,0,2.8646,2.8643,2.8627,2.8638,2.8637,2.866,2.8652,2.8657,2.8653,2.8671,2.8675,2.8673,2.8685,2.8683,2.865,2.8618,2.8684,2.8683,2.8562,2.8558,2.8555,2.849,0,0,0,0,0,0,2.8646,2.8643,2.8624,2.8638,2.8637,2.8597,2.865,2.8656,2.865,2.8656,2.8664,2.8667,2.8687,2.8653,2.8648,2.8617,2.8681,2.8565,2.856,2.8556,2.8495,2.8484,2.8476,0,0,0,0,0,2.8647,2.8604,2.8622,2.862,2.8613,2.8595,2.8595,2.862,2.8648,2.8628,2.8639,2.8667,2.8623,2.8649,2.8645,2.8612,2.8567,2.8561,2.8556,2.8499,2.8486,2.8476,0,0,0,0,0,0,2.8583,2.8606,2.8627,2.8587,2.8589,2.8605,2.8581,2.8606,2.8598,2.8604,2.8634,2.8635,2.8597,2.8601,2.863,2.8559,2.8599,2.8593,2.8557,2.8546,2.8536,2.8535,2.868,0,0,0,0,0,2.8565,2.8551,2.8571,2.8534,2.8534,2.8557,2.855,2.857,2.8572,2.8572,2.8581,2.8581,2.8567,2.8557,2.8545,2.8497,2.8498,2.8472,2.8462,2.8454,2.8447,2.8421,2.8409,2.8537,2.8537,2.8537,0,0,2.8526,2.8537,2.8526,2.8521,2.8525,2.8507,2.8557,2.8536,2.8523,2.8569,2.8538,2.8545,2.8546,2.8505,2.8487,2.8507,2.8413,2.8448,2.8441,2.8439,2.8414,2.8402,2.8391,2.8533,2.8534,2.8534,0,0,2.8446,2.8454,2.8423,2.8427,2.8432,2.8448,2.8441,2.8454,2.846,2.8431,2.8464,2.8448,2.8424,2.8423,2.842,2.834,2.8365,2.8336,2.8284,2.8258,2.8248,2.8239,2.8209,2.8198,2.833,2.8329,2.8329,0,2.8396,2.8373,2.8404,2.8381,2.8377,2.8421,2.8389,2.839,2.839,2.8386,2.841,2.838,2.8384,2.8343,2.8323,2.832,2.8311,2.8334,2.8247,2.8239,2.8231,2.8202,2.8191,2.8326,2.8326,2.8326,2.8327,0,2.8311,2.8294,2.8269,2.827,2.8264,2.8236,2.8262,2.8251,2.8272,2.8284,2.8253,2.826,2.825,2.8242,2.8261,2.8202,2.8215,2.8242,2.8283,2.8214,2.8188,2.8177,2.832,2.8322,2.8323,2.8324,0,0,2.8189,2.8209,2.8199,2.82,2.821,2.8196,2.8171,2.8163,2.8153,2.8152,2.813,2.8109,2.8135,2.813,2.815,2.8127,2.8061,2.8157,2.8158,2.8137,2.7996,2.7973,2.796,2.8079,2.8077,2.8076,2.7995,0,2.8111,2.8069,2.8097,2.805,2.8034,2.8075,2.8052,2.8055,2.8067,2.8053,2.8066,2.805,2.8086,2.8084,2.8063,2.8074,2.8033,2.808,2.8056,2.8055,2.8052,2.7947,2.7923,2.7846,2.7985,2.7983,2.7982,0,2.8013,2.801,2.7962,2.7976,2.797,2.7949,2.7944,2.7932,2.7935,2.7945,2.7941,2.7966,2.794,2.7982,2.7945,2.7977,2.7969,2.7973,2.797,2.7967,2.8013,2.7938,2.7823,2.781,2.7967,2.7968,2.7969,0,2.7927,2.7911,2.788,2.788,2.7895,2.7879,2.7884,2.789,2.7883,2.7878,2.7874,2.7865,2.786,2.7852,2.7873,2.7902,2.7833,2.7877,2.7838,2.7838,2.782,2.782,2.7699,2.7818,2.7818,2.7819,2.7819,0,2.7835,2.7804,2.7841,2.7822,2.7787,2.7819,2.7783,2.7793,2.7798,2.778,2.7815,2.7797,2.7828,2.7812,2.7829,2.7794,2.7792,2.7798,2.7802,2.7793,2.7792,2.7787,2.7792,2.7816,2.7816,2.7817,2.7817,0,2.7731,2.7756,2.7724,2.7742,2.7746,2.7719,2.7733,2.7715,2.773,2.7707,2.7703,2.7725,2.7709,2.773,2.7715,2.7726,2.7679,2.7693,2.7678,2.7681,2.7641,2.7644,2.751,2.7493,2.7625,2.7624,2.7623,0,2.767,2.7647,2.7663,2.7654,2.7658,2.7644,2.7638,2.7668,2.7659,2.7662,2.7643,2.763,2.7621,2.7593,2.7606,2.7595,2.7607,2.7561,2.7605,2.7597,2.7603,2.7604,2.7601,2.7551,2.7549,2.7548,2.7547,0,2.7559,2.7572,2.7563,2.7558,2.755,2.7547,2.7546,2.7537,2.7568,2.7557,2.7542,2.7535,2.7521,2.7507,2.7499,2.7503,2.7528,2.7533,2.7523,2.7513,2.7505,2.7507,2.7651,2.7535,2.7537,2.7537,2.7538,2.7538,2.7473,2.7454,2.7463,2.7451,2.7454,2.7453,2.7437,2.745,2.7439,2.743,2.7449,2.7428,2.7432,2.7425,2.7426,2.7409,2.7428,2.7414,2.741,2.7406,2.7399,2.751,2.7408,2.7408,2.7408,2.7409,2.7409,0,2.7362,2.737,2.7359,2.7358,2.7348,2.7377,2.7378,2.7367,2.7349,2.7352,2.7343,2.7324,2.7311,2.7324,2.7313,2.7297,2.7308,2.7293,2.7293,2.7293,2.7383,2.7392,2.7283,2.7283,2.7283,2.7283,2.7283,2.7283,2.7303,2.7272,2.7286,2.7257,2.7265,2.7247,2.7244,2.7243,2.7245,2.7223,2.7213,2.7223,2.7229,2.7218,2.7206,2.7211,2.7204,2.7183,2.7191,2.7274,2.7287,2.7298,2.7307,2.7182,2.7182,2.7102,2.7101,2.7101]}]]